Home   Weather   Moreno Valley   Past weeks

Flag for USA Past Weather in Moreno Valley, California, USA — Yesterday and Last 2 Weeks

Now
68 °F

Clear.


Feels Like: 68 °F
Forecast: 70 / 101 °F
Wind: No wind

Location: Riverside / March Air Force Base

Current Time: Aug 30, 2016 at 8:08:05 AM

Latest Report: Aug 30, 2016 at 6:58 AM


Visibility: 10 mi

Pressure: 29.87 "Hg

Humidity: 68%

Dew Point: 57 °F

Location of Moreno ValleyLocation

Past Weather in Moreno Valley — Graph

°F

Moreno Valley Temperature Yesterday

Maximum temperature yesterday: 100 °F (at 2:58 PM)
Minimum temperature yesterday: 62 °F (at 6:58 AM)
Average temperature yesterday: 81 °F

High & Low Weather Summary for the Past Weeks

 TemperatureHumidityPressure
High104 °F (Aug 15, 2:58 PM)100% (Aug 26, 2:58 AM)30.03 "Hg (Aug 26, 2:58 AM)
Low58 °F (Aug 27, 2:58 AM)3% (Aug 16, 4:58 PM)29.78 "Hg (Aug 18, 3:58 PM)
Average77 °F43%29.90 "Hg
* Reported Aug 15 6:58 AM — Aug 30 6:58 AM, Moreno Valley, Weather by CustomWeather, © 2016

Note: Actual official high and low records may vary slightly from our data, if they occured in-between our weather recording intervals... More about our weather records

Advertising

Moreno Valley Weather History for the Previous 24 Hours

Scroll right to see more
 ConditionsComfort  
Time TempWeatherWind HumidityBarometerVisibility
6:58 AM
Tue, Aug 30
68 °FClear.No wind68%29.87 "Hg10 mi
5:58 AM67 °FClear.No wind67%29.85 "Hg10 mi
4:58 AM65 °FClear.No wind69%29.85 "Hg10 mi
3:58 AM67 °FClear.No wind64%29.84 "Hg10 mi
2:58 AM70 °FClear.No wind61%29.85 "Hg10 mi
1:58 AM71 °FClear.3 mph65%29.86 "Hg10 mi
12:58 AM70 °FClear.3 mph62%29.87 "Hg10 mi
11:58 PM
Mon, Aug 29
72 °FClear.3 mph61%29.87 "Hg10 mi
10:58 PM75 °FClear.3 mph57%29.88 "Hg10 mi
9:58 PM80 °FClear.5 mph48%29.88 "Hg10 mi
8:58 PM83 °FClear.5 mph43%29.87 "Hg10 mi
7:58 PM85 °FSunny.7 mph40%29.85 "Hg10 mi
6:58 PM90 °FSunny.10 mph30%29.84 "Hg10 mi
5:58 PM94 °FSunny.16 mph26%29.83 "Hg10 mi
4:58 PM98 °FSunny.17 mph19%29.82 "Hg10 mi
3:58 PM100 °FSunny.15 mph22%29.83 "Hg10 mi
2:58 PM100 °FSunny.14 mph18%29.84 "Hg10 mi
1:58 PM99 °FSunny.14 mph19%29.87 "Hg10 mi
12:58 PM96 °FSunny.12 mph23%29.90 "Hg10 mi
11:58 AM94 °FSunny.8 mph23%29.92 "Hg10 mi
10:58 AM91 °FSunny.6 mph23%29.93 "Hg10 mi
9:58 AM85 °FSunny.No wind32%29.94 "Hg10 mi
8:58 AM77 °FSunny.No wind46%29.96 "Hg10 mi
Weather by CustomWeather, © 2016

See weather overviewHow to use our weather pages